Regional Weather Roundup
Issued by NWS State College, PA

Home | Current Version | Previous Version | Graphics & Text | Print | Product List | Glossary On
Versions: 1 2 3 4 5 6 7 8 9 10 11 12 13 14 15 16 17 18 19 20 21 22 23 24 25 26 27 28 29 30 31 32 33 34 35 36 37 38 39 40 41 42 43 44 45 46 47 48 49 50
000
ASUS41 KCTP 051310
RWRCTP

REGIONAL WEATHER ROUNDUP
NATIONAL WEATHER SERVICE STATE COLLEGE PA
900 AM EDT SAT SEP 05 2015

Note: "fair" indicates few or no clouds below 12,000 feet with no
significant weather and/or obstructions to visibility.

* = STATION THAT DOES NOT REPORT PRECIPITATION /E.G. RAIN...SNOW...ETC/
    THUNDER OR FOG.

PAZ002>004-007>009-013>016-020>023-029>032-051400-
WESTERN PENNSYLVANIA

CITY           SKY/WX    TMP DP  RH WIND       PRES   REMARKS
ERIE           SUNNY     74  65  73 S12       30.18R
MEADVILLE      SUNNY     71  64  78 VRB7      30.23R
FRANKLIN*      SUNNY     70  66  88 SE6       30.25R
NEW CASTLE     FAIR      68  68 100 CALM      30.22R FOG
BEAVER COUNTY  SUNNY     72  66  83 S7        30.21
BUTLER*        SUNNY     70  66  88 SE6       30.23S
PITTSBURGH INT MOSUNNY   73  66  78 SE6       30.21R
PITTSBURGH     SUNNY     73  63  70 S10       30.21R HAZE
INDIANA*       SUNNY     73  68  83 SE3       30.26S HAZE
LATROBE        SUNNY     75  68  78 CALM      30.22R
WASHINGTON CO* SUNNY     72  66  83 SE6       30.22R
$$

PAZ004>006-010>012-017>019-024>028-033>037-041-042-045-046-049>053-051400-
CENTRAL PENNSYLVANIA

CITY           SKY/WX    TMP DP  RH WIND       PRES   REMARKS
BRADFORD       CLOUDY    69  66  90 SE7       30.28R FOG
DUBOIS         MOSUNNY   72  67  84 VRB7      30.25S HAZE
CLEARFIELD     CLOUDY    71  66  84 VRB5      30.27S HAZE
JOHNSTOWN      MOSUNNY   70  65  84 SE8       30.28S HAZE
ALTOONA        CLOUDY    70  65  84 SE7       30.28R
STATE COLLEGE  CLOUDY    70  64  83 E7        30.27R
WILLIAMSPORT   CLOUDY    70  63  78 VRB3      30.26R
SELINSGROVE    CLOUDY    71  63  75 SE3       30.27R
FT INDIANTOWN  CLOUDY    70  62  76 E6        30.27S
CAPITAL CITY   CLOUDY    71  63  75 E8        30.26S
HARRISBURG     PTSUNNY   73  63  70 E8        30.26R
YORK           CLOUDY    71  64  78 E6        30.27R
$$

PAZ038>040-043-044-047-048-054-055-060>062-067>071-051400-
EASTERN PENNSYLVANIA

CITY           SKY/WX    TMP DP  RH WIND       PRES   REMARKS
SCRANTON       CLOUDY    70  61  73 VRB3      30.29R
MOUNT POCONO   MOSUNNY   65  59  81 E5        30.32R
ALLENTOWN      PTSUNNY   72  63  73 NE5       30.28R
QUAKERTOWN*    MOSUNNY   68  63  83 E7        30.29R
READING        PTSUNNY   71  62  73 VRB5      30.26S
LANCASTER      CLOUDY    70  63  78 E7        30.27R
COATESVILLE    CLOUDY    70  64  83 E5        30.27S
POTTSTOWN      PTSUNNY   70  64  81 NE8       30.28S
BLUE BELL      MOSUNNY   72  64  78 NE5       30.26S
DOYLESTOWN     MOSUNNY   68  61  78 VRB5      30.26F
WILLOW GROVE   NOT AVBL
NORTH PHILA    MOSUNNY   74  60  61 E9        30.27S
PHILADELPHIA   PTSUNNY   75  61  61 NE10      30.25R
$$



USA.gov is the U.S. government's official web portal to all federal, state and local government web resources and services.